KUZGTU 1 (RS47S)

Last updated on Sun Aug 09 2026 00:03:16 GMT+0000 (Coordinated Universal Time)

1 57217U 23091AV 26220.60233847 .00006287 00000+0 21265-3 0 9993 2 57217 97.5031 285.6464 0008816 268.3208 91.7023 15.30952490172398
UTC large
Height (km)
Speed (km/s)
/
Latitude / Longitude
Inclination (degrees)
Orbital Period (minutes)
Azimuth
Elevation
Range (km)
Doppler Factor

Next 0 passes for location: London (51.5072 / 0.1276)

No passes found over London.
KUZGTU 1 (RS47S)